Regional Weather Roundup
Issued by NWS

Home | Current Version | Previous Version | Graphics & Text | Print | Product List | Glossary On
Versions: 1 2 3 4 5 6 7 8 9 10 11 12 13 14 15 16 17 18 19 20 21 22 23 24 25 26 27 28 29 30 31 32 33 34 35 36 37 38 39 40 41 42 43 44 45 46 47 48 49 50
000
ASUS43 KOAX 030302
RWRNE

WEATHER ROUNDUP FOR NEBRASKA
NATIONAL WEATHER SERVICE OMAHA NE
1000 PM CDT SUN AUG 02 2015

NOTES: SATELLITE DATA IS BEING USED TO AUGMENT CLOUD COVER ABOVE
       12000 FEET.
       "FAIR" INDICATES FEW OR NO CLOUDS BELOW 12,000 FEET WITH NO
       SIGNIFICANT WEATHER AND/OR OBSTRUCTIONS TO VISIBILITY.

  * THESE STATIONS DO NOT REPORT WEATHER SUCH AS RAIN...SNOW OR FOG.

NEZ001>004-019>022-054>056-030400-
NEBRASKA PANHANDLE

CITY           SKY/WX    TMP DP  RH WIND       PRES   REMARKS
SCOTTSBLUFF    MOCLDY    72  61  68 MISG      29.97R
ALLIANCE       MOCLDY    69  58  67 SE5       29.98R
CHADRON        CLEAR     74  57  55 NE10      29.96R
KIMBALL        MOCLDY    70  51  50 S7        30.04R
SIDNEY         MOCLDY    73  54  51 SE10      30.04R
$$

NEZ057>060-069>072-079>082-030400-
SOUTHWEST NEBRASKA

CITY           SKY/WX    TMP DP  RH WIND       PRES   REMARKS
NORTH PLATTE   PTCLDY    66  61  84 E6        29.95R
IMPERIAL       PTCLDY    76  54  46 SE10      29.96R
LEXINGTON      PTCLDY    70  57  63 S5        29.91S
MCCOOK         PTCLDY    74  57  55 SE7       29.94R
OGALLALA       MOCLDY    76  57  51 SW5       29.97R
$$

NEZ005>010-023>029-035>040-094-030400-
NORTH CENTRAL NEBRASKA

CITY           SKY/WX    TMP DP  RH WIND       PRES   REMARKS
AINSWORTH      CLEAR     71  64  79 NE5       29.97R
BROKEN BOW     PTCLDY    66  61  84 N5        29.92R
O`NEILL        PTCLDY    73  65  75 N6        29.95R
ORD            CLEAR     68  64  87 N6        29.90R
THEDFORD       CLEAR     75  63  66 CALM      29.97R
$$

NEZ041-046>049-061>064-073>077-083>087-030400-
SOUTH CENTRAL NEBRASKA

CITY           SKY/WX    TMP DP  RH WIND       PRES   REMARKS
GRAND ISLAND   PTCLDY    67  62  84 N7        29.89R
AURORA         PTCLDY    69  64  83 N7        29.88R
HASTINGS       MOCLDY    71  60  68 E8        29.89R
HEBRON         MOCLDY    77  70  79 CALM      29.85R
HOLDREGE       PTCLDY    71  56  59 SW3       29.91R
KEARNEY *      MOCLDY    77  54  44 SW8       29.89R
YORK           PTCLDY    73  66  78 NW7       29.87S
$$

NEZ011>018-030>034-042>045-030400-
NORTHEAST NEBRASKA

CITY           SKY/WX    TMP DP  RH WIND       PRES   REMARKS
NORFOLK        PTCLDY    77  69  76 CALM      29.91R
ALBION         PTCLDY    76  66  71 NE7       29.90R
BLAIR          MOCLDY    79  70  73 N8        29.85S
COLUMBUS *     MOCLDY    73  66  78 CALM      29.87R
FREMONT        MOCLDY    80  69  68 N5        29.86R
TEKAMAH        PTCLDY    75  73  93 NW6       29.85R
WAYNE          CLEAR     71  67  89 N7        29.88R
$$

NEZ050>053-065>068-078-088>093-030400-
SOUTHEAST NEBRASKA

CITY           SKY/WX    TMP DP  RH WIND       PRES   REMARKS
LINCOLN        MOCLDY    80  69  69 W5        29.83R
OMAHA EPPLEY   TSTM      80  76  87 N10       29.83R
BEATRICE       MOCLDY    81  75  82 CALM      29.84R
FALLS CITY     CLOUDY    82  73  74 S7        29.82R
NEBRASKA CITY  CLOUDY    80  71  74 CALM      29.84R
PLATTSMOUTH    CLOUDY   N/A N/A N/A N3        29.84R
$$

NEZ044-045-051>053-067-030400-
OMAHA AREA

CITY           SKY/WX    TMP DP  RH WIND       PRES   REMARKS
OMAHA EPPLEY   TSTM      80  76  87 N10       29.83R
BLAIR          MOCLDY    79  70  73 N8        29.85S
FREMONT        MOCLDY    80  69  68 N5        29.86R
MILLARD        CLOUDY    84  74  71 N3        29.83R HX  92
PLATTSMOUTH    CLOUDY   N/A N/A N/A N3        29.84R
WAHOO          FAIR      68  64  88 CALM      29.85R
$$



USA.gov is the U.S. government's official web portal to all federal, state and local government web resources and services.